Location: Shepherdstown, WV
(39.4326°N, 77.8042°W)
Time: 20:05:25
(UTC-04:00)

S-56A Canister/Altair - All Passes

Search period start: 28 July 2021 00:00
Search period end: 07 August 2021 00:00
Orbit: 631 x 2501 km, 38.9° (Epoch: 28 July)

Date Brightness Start Highest point End Pass type
(mag) Time Alt. Az. Time Alt. Az. Time Alt. Az.
28 Jul - 00:02:45 10° W 00:12:52 30° SW 00:20:22 10° S visible
28 Jul - 15:04:13 10° SSW 15:15:55 38° SE 15:29:03 10° ENE daylight
28 Jul - 17:07:10 10° WSW 17:21:33 72° SSE 17:36:01 10° ENE daylight
28 Jul - 19:13:18 10° W 19:28:41 88° S 19:41:45 10° E daylight
28 Jul - 21:20:40 10° WNW 21:35:26 73° SSW 21:46:20 10° ESE visible
28 Jul - 23:28:42 10° WNW 23:40:02 35° SW 23:48:20 10° SSE visible
29 Jul - 14:31:48 10° SSW 14:42:41 34° SE 14:55:14 10° E daylight
29 Jul - 16:34:04 10° SW 16:47:57 68° SSE 17:02:39 10° ENE daylight
29 Jul - 18:39:45 10° W 18:55:00 88° S 19:08:40 10° E daylight
29 Jul - 20:46:55 10° W 21:02:01 77° SSW 21:13:36 10° ESE visible
29 Jul - 22:54:44 10° WNW 23:07:05 41° SW 23:16:10 10° SSE visible
30 Jul - 13:59:33 10° S 14:09:32 29° SE 14:21:15 10° E daylight
30 Jul - 16:01:06 10° SW 16:14:24 64° SSE 16:29:12 10° ENE daylight
30 Jul - 18:06:19 10° W 18:21:17 87° S 18:35:29 10° E daylight
30 Jul - 20:13:13 10° W 20:28:31 80° SSW 20:40:47 10° ESE daylight
30 Jul - 22:20:49 10° WNW 22:34:02 46° SW 22:43:51 10° SSE visible
31 Jul - 00:32:18 10° W 00:36:57 13° WSW 00:41:04 10° SSW visible
31 Jul - 13:27:31 10° S 13:36:29 25° SE 13:47:06 10° E daylight
31 Jul - 15:28:14 10° SW 15:40:54 60° SSE 15:55:39 10° ENE daylight
31 Jul - 17:32:59 10° WSW 17:47:35 86° S 18:02:13 10° E daylight
31 Jul - 19:39:35 10° W 19:54:56 83° SSW 20:07:52 10° ESE daylight
31 Jul - 21:46:57 10° WNW 22:00:52 52° SW 22:11:27 10° SE visible
31 Jul - 23:57:04 10° W 00:04:13 17° SW 00:10:15 10° SSW visible
01 Aug - 12:55:43 10° S 13:03:31 21° SE 13:12:43 10° E daylight
01 Aug - 14:55:31 10° SW 15:07:29 55° SSE 15:22:00 10° ENE daylight
01 Aug - 16:59:44 10° WSW 17:13:53 84° SSE 17:28:52 10° E daylight
01 Aug - 19:06:02 10° W 19:21:18 85° S 19:34:50 10° ESE daylight
01 Aug - 21:13:10 10° WNW 21:27:37 57° SSW 21:38:54 10° SE visible
01 Aug - 23:22:25 10° W 23:31:25 21° SW 23:38:49 10° S visible
02 Aug - 12:24:17 10° SSE 12:30:38 17° SE 12:38:01 10° E daylight
02 Aug - 14:22:54 10° SW 14:34:10 50° SE 14:48:16 10° ENE daylight
02 Aug - 16:26:37 10° WSW 16:40:13 82° SSE 16:55:25 10° E daylight
02 Aug - 18:32:34 10° W 18:47:37 87° S 19:01:42 10° ESE daylight
02 Aug - 20:39:27 10° WNW 20:54:15 62° SSW 21:06:14 10° SE visible
02 Aug - 22:48:03 10° W 22:58:31 26° SW 23:07:02 10° S visible
03 Aug - 11:53:31 10° SE 11:57:51 13° ESE 12:02:41 10° E daylight
03 Aug - 13:50:25 10° SSW 14:00:57 45° SE 14:14:28 10° ENE daylight
03 Aug - 15:53:35 10° WSW 16:06:35 79° SSE 16:21:52 10° E daylight
03 Aug - 17:59:11 10° W 18:13:54 88° S 18:28:28 10° E daylight
03 Aug - 20:05:49 10° WNW 20:20:48 66° SSW 20:33:28 10° SE daylight
03 Aug - 22:13:53 10° W 22:25:31 30° SW 22:35:02 10° S visible
04 Aug - 13:18:04 10° SSW 13:27:49 40° SE 13:40:34 10° ENE daylight
04 Aug - 15:20:41 10° WSW 15:33:01 76° SSE 15:48:15 10° E daylight
04 Aug - 17:25:54 10° W 17:40:10 88° S 17:55:07 10° E daylight
04 Aug - 19:32:16 10° WNW 19:47:16 70° SSW 20:00:35 10° SE daylight
04 Aug - 21:39:52 10° WNW 21:52:27 35° SW 22:02:50 10° SSE visible
05 Aug - 12:45:52 10° SSW 12:54:48 35° SE 13:06:36 10° ENE daylight
05 Aug - 14:47:53 10° WSW 14:59:33 72° SSE 15:14:35 10° ENE daylight
05 Aug - 16:52:43 10° W 17:06:28 88° S 17:21:41 10° E daylight
05 Aug - 18:58:47 10° WNW 19:13:41 74° SSW 19:27:34 10° ESE daylight
05 Aug - 21:05:59 10° WNW 21:19:16 39° SW 21:30:29 10° SSE visible
06 Aug - 12:13:48 10° S 12:21:53 30° SE 12:32:31 10° E daylight
06 Aug - 14:15:11 10° SW 14:26:09 68° SSE 14:40:51 10° ENE daylight
06 Aug - 16:19:37 10° W 16:32:47 88° S 16:48:09 10° E daylight
06 Aug - 18:25:25 10° W 18:40:03 77° SSW 18:54:27 10° ESE daylight
06 Aug - 20:32:14 10° WNW 20:45:59 44° SW 20:57:58 10° SSE visible
06 Aug - 22:43:57 10° W 22:49:36 13° WSW 22:54:49 10° SSW visible
